This demonstration page uses our WeatherBlox Daily Observations layout. Learn more.

Left ArrowRight Arrow

Hourly Observations for August 21, 2022

Temp ( °F °C ) Dew Point ( °F °C ) Humidity (%) Winds ( mph kmh ) Pressure ( in mb ) Visibility ( mi km ) Precip ( " mm )
12:54 am 00:54 Clear 67 19.4 60 15.6 79 79 NNW 3 6 30.06 1018 10 16 0.00 0.00
1:54 am 01:54 Clear 62 16.7 58 14.4 86 86 N 6 9 30.06 1018 10 16 0.00 0.00
2:54 am 02:54 Clear 62 16.7 59 15 90 90 N 7 11 30.06 1018 10 16 0.00 0.00
3:54 am 03:54 Clear 62 16.7 59 15 90 90 N 6 9 30.06 1018 10 16 0.00 0.00
4:54 am 04:54 Clear 58 14.4 56 13.3 93 93 N 6 9 30.06 1018 10 16 0.00 0.00
5:54 am 05:54 Clear 58 14.4 56 13.3 93 93 N 6 9 30.07 1018 8 13 0.00 0.00
6:54 am 06:54 Sunny 58 14.4 57 13.9 97 97 NNW 3 6 30.09 1019 7 11 0.00 0.00
7:54 am 07:54 Sunny 63 17.2 59 15 87 87 N 3 6 30.11 1020 9 14 0.00 0.00
8:54 am 08:54 Sunny 67 19.4 61 16.1 81 81 NNW 5 7 30.12 1020 10 16 0.00 0.00
9:54 am 09:54 Sunny 73 22.8 63 17.2 71 71 ENE 6 9 30.12 1020 10 16 0.00 0.00
10:54 am 10:54 Partly Cloudy 77 25 63 17.2 62 62 VRB 3 6 30.12 1020 10 16 0.00 0.00
11:54 am 11:54 Partly Cloudy 81 27.2 63 17.2 54 54 VRB 3 6 30.11 1020 10 16 0.00 0.00
12:54 pm 12:54 Sunny 84 28.9 61 16.1 46 46 undefined N/A 30.10 1019 10 16 0.00 0.00
1:54 pm 13:54 Sunny 85 29.4 59 15 42 42 VRB 5 7 30.09 1019 10 16 0.00 0.00
2:54 pm 14:54 Partly Cloudy 86 30 61 16.1 43 43 NNE 8 13 30.08 1019 10 16 0.00 0.00
3:54 pm 15:54 Sunny 86 30 59 15 40 40 VRB 5 7 30.06 1018 10 16 0.00 0.00
4:54 pm 16:54 Mostly Cloudy 87 30.6 59 15 39 39 NE 8 13 30.06 1018 10 16 0.00 0.00
5:54 pm 17:54 Sunny 86 30 59 15 40 40 NE 7 11 30.05 1018 10 16 0.00 0.00
6:54 pm 18:54 Sunny 84 28.9 60 15.6 45 45 N 6 9 30.04 1017 10 16 0.00 0.00
7:54 pm 19:54 Sunny 79 26.1 61 16.1 54 54 NE 7 11 30.04 1017 10 16 0.00 0.00
8:54 pm 20:54 Clear 73 22.8 60 15.6 64 64 NE 6 9 30.06 1018 10 16 0.00 0.00
9:54 pm 21:54 Clear 70 21.1 60 15.6 71 71 N 5 7 30.07 1018 10 16 0.00 0.00
10:54 pm 22:54 Clear 68 20 60 15.6 76 76 N 3 6 30.08 1019 10 16 0.00 0.00
11:54 pm 23:54 Clear 67 19.4 60 15.6 79 79 Calm 30.08 1019 10 16 0.00 0.00

Powered by AerisWeather